W4SNA-2 Weather Reports


Display with metric or nautical units.
time (UTC)temp
F
wind
direction
speed
MPH
gust
MPH
rain 1hr
in
rain 24hr
in
rain mn
in
humidity
%
barometer
mb
20260906104559 69 337 1.0 4.0 0.00 0.00 0.00 99 1016.4
20260906104059 69 0 0.0 3.0 0.00 0.00 0.00 99 1016.5
20260906103559 69 0 0.0 0.0 0.00 0.00 0.00 99 1016.4
20260906103059 69 0 0.0 0.0 0.00 0.00 0.00 99 1016.4
20260906102559 69 0 0.0 0.0 0.00 0.00 0.00 99 1016.4
20260906102059 69 0 0.0 0.0 0.00 0.00 0.00 99 1016.4
20260906101559 69 0 0.0 0.0 0.00 0.00 0.00 99 1016.5
20260906101059 69 0 0.0 0.0 0.00 0.00 0.00 99 1016.3
20260906100559 69 0 0.0 0.0 0.00 0.00 0.00 99 1016.2
20260906100059 69 0 0.0 3.0 0.00 0.00 0.00 99 1016.1
20260906095559 69 0 0.0 3.0 0.00 0.00 0.00 99 1016.0
20260906095059 69 0 0.0 3.0 0.00 0.00 0.00 99 1015.9
20260906094600 69 0 0.0 2.0 0.00 0.00 0.00 99 1015.8
20260906094059 69 0 0.0 2.0 0.00 0.00 0.00 99 1015.8
20260906093559 69 0 0.0 0.0 0.00 0.00 0.00 99 1015.8
20260906093059 69 0 0.0 2.0 0.00 0.00 0.00 99 1015.8
20260906092559 69 0 0.0 3.0 0.00 0.00 0.00 99 1015.7
20260906092059 69 0 0.0 5.0 0.00 0.00 0.00 99 1015.8
20260906091600 69 0 0.0 5.0 0.00 0.00 0.00 99 1015.8
20260906091059 69 0 0.0 6.0 0.00 0.00 0.00 99 1015.6
20260906090559 69 334 1.0 6.0 0.00 0.00 0.00 99 1015.5
20260906090059 69 334 1.0 5.0 0.00 0.00 0.00 99 1015.5
20260906085600 69 334 1.0 5.0 0.00 0.00 0.00 99 1015.5
20260906085100 69 334 1.0 6.0 0.00 0.00 0.00 99 1015.4
20260906084601 69 334 3.0 6.0 0.00 0.00 0.00 99 1015.2
20260906084100 69 334 3.0 6.0 0.00 0.00 0.00 99 1015.2
20260906083559 69 334 3.0 6.0 0.00 0.00 0.00 99 1015.2
20260906083059 69 334 3.0 6.0 0.00 0.00 0.00 99 1015.0
20260906082559 69 334 2.0 6.0 0.00 0.00 0.00 99 1015.0
20260906082059 69 335 3.0 6.0 0.00 0.00 0.00 99 1015.2
20260906081559 69 335 3.0 5.0 0.00 0.00 0.00 98 1015.2
20260906081101 69 335 2.0 5.0 0.00 0.00 0.00 98 1015.2
20260906080602 69 335 3.0 5.0 0.00 0.00 0.00 98 1015.2
20260906080059 69 335 2.0 5.0 0.00 0.00 0.00 98 1015.1
20260906075559 69 335 1.0 5.0 0.00 0.00 0.00 98 1015.2
20260906075059 69 335 1.0 4.0 0.00 0.00 0.00 98 1015.2
20260906074559 69 335 2.0 5.0 0.00 0.00 0.00 98 1015.2
20260906074059 69 335 2.0 6.0 0.00 0.00 0.00 98 1015.2
20260906073559 69 335 3.0 6.0 0.00 0.00 0.00 98 1015.1
20260906073030 69 334 3.0 8.0 0.00 0.00 0.00 98 1015.1
20260906072531 69 334 4.0 8.0 0.00 0.00 0.00 97 1015.2
20260906072032 69 334 4.0 9.0 0.00 0.00 0.00 97 1015.2
20260906071531 69 334 5.0 10.0 0.00 0.00 0.00 97 1015.4
20260906071032 69 333 5.0 10.0 0.00 0.00 0.00 96 1015.5
20260906070532 69 333 4.0 8.0 0.00 0.00 0.00 95 1015.5
20260906070152 70 333 3.0 8.0 0.00 0.00 0.00 93 1015.4
20260906070032 70 333 3.0 8.0 0.00 0.00 0.00 93 1015.4
20260906065534 71 335 4.0 6.0 0.00 0.00 0.00 90 1015.6
20260906065030 71 335 2.0 5.0 0.00 0.00 0.00 89 1015.6
20260906064531 72 335 1.0 5.0 0.00 0.00 0.00 88 1015.7
20260906064030 72 335 1.0 5.0 0.00 0.00 0.00 88 1015.6
20260906063531 71 335 2.0 5.0 0.00 0.00 0.00 88 1015.8
20260906063030 71 335 2.0 4.0 0.00 0.00 0.00 88 1015.8
20260906062530 71 335 1.0 4.0 0.00 0.00 0.00 88 1015.8
20260906062030 72 335 1.0 5.0 0.00 0.00 0.00 87 1015.8
20260906061531 72 335 1.0 5.0 0.00 0.00 0.00 87 1015.7
20260906061030 72 335 2.0 4.0 0.00 0.00 0.00 86 1015.7
20260906060531 73 335 2.0 5.0 0.00 0.00 0.00 86 1015.7
20260906060030 73 335 1.0 5.0 0.00 0.00 0.00 85 1015.7
20260906055530 73 335 1.0 5.0 0.00 0.00 0.00 85 1015.7
20260906055030 73 335 1.0 5.0 0.00 0.00 0.00 85 1015.7
20260906054531 72 335 3.0 8.0 0.00 0.00 0.00 85 1015.8
20260906054031 72 335 4.0 8.0 0.00 0.00 0.00 85 1015.7
20260906053531 73 335 3.0 6.0 0.00 0.00 0.00 85 1015.8
20260906053031 73 335 3.0 5.0 0.00 0.00 0.00 84 1015.9
20260906052531 73 335 3.0 6.0 0.00 0.00 0.00 84 1015.9
20260906052030 73 335 3.0 6.0 0.00 0.00 0.00 85 1015.9
20260906051530 72 335 2.0 5.0 0.00 0.00 0.00 86 1016.0
20260906051030 72 335 3.0 6.0 0.00 0.00 0.00 85 1016.0
20260906050530 72 335 4.0 6.0 0.00 0.00 0.00 84 1015.9
20260906050030 72 335 4.0 6.0 0.00 0.00 0.00 84 1015.9
20260906045532 72 335 4.0 6.0 0.00 0.00 0.00 83 1016.0
20260906045030 72 335 3.0 8.0 0.00 0.00 0.00 82 1016.1
20260906044533 73 335 4.0 8.0 0.00 0.00 0.00 81 1016.1
20260906044030 73 335 3.0 8.0 0.00 0.00 0.00 81 1016.0
20260906043531 73 335 3.0 8.0 0.00 0.00 0.00 81 1016.0
20260906043030 73 335 3.0 6.0 0.00 0.00 0.00 82 1016.1
20260906042454 73 335 4.0 6.0 0.00 0.00 0.00 83 1016.0
20260906042321 73 335 4.0 6.0 0.00 0.00 0.00 83 1016.0
20260906041821 73 335 3.0 6.0 0.00 0.00 0.00 84 1016.1
20260906041321 73 335 2.0 4.0 0.00 0.00 0.00 84 1016.2
20260906040822 73 335 1.0 4.0 0.00 0.00 0.00 83 1016.3
20260906040321 73 335 1.0 5.0 0.00 0.00 0.00 83 1016.3
20260906035821 74 335 1.0 10.0 0.00 0.00 0.00 82 1016.2
20260906035321 74 333 3.0 10.0 0.00 0.00 0.00 81 1016.2
20260906034821 74 333 2.0 9.0 0.00 0.00 0.00 81 1016.0
20260906034321 74 333 3.0 8.0 0.00 0.00 0.00 81 1016.1
20260906033821 74 333 3.0 8.0 0.00 0.00 0.00 81 1016.1
20260906033131 74 334 2.0 9.0 0.00 0.00 0.00 81 1016.2
20260906032630 74 335 2.0 8.0 0.00 0.00 0.00 81 1016.1
20260906032130 74 335 2.0 8.0 0.00 0.00 0.00 81 1016.2
20260906031631 74 335 2.0 6.0 0.00 0.00 0.00 81 1016.2
20260906031132 74 335 1.0 6.0 0.00 0.00 0.00 81 1016.1
20260906030630 75 0 0.0 5.0 0.00 0.00 0.00 81 1016.1
20260906030131 75 0 0.0 5.0 0.00 0.00 0.00 81 1016.1
20260906025630 75 335 1.0 6.0 0.00 0.00 0.00 81 1016.0
20260906025130 75 335 1.0 9.0 0.00 0.00 0.00 80 1016.1
20260906024630 75 334 2.0 9.0 0.00 0.00 0.00 79 1016.0
20260906023740 75 329 2.0 8.0 0.00 0.00 0.00 80 1016.1
20260906023413 75 328 1.0 5.0 0.00 0.00 0.00 80 1016.2
20260906023240 75 328 2.0 5.0 0.00 0.00 0.00 81 1016.2
20260906022743 75 328 1.0 5.0 0.00 0.00 0.00 80 1016.2
20260906022240 75 328 1.0 5.0 0.00 0.00 0.00 80 1016.3
20260906021740 76 0 0.0 5.0 0.00 0.00 0.00 80 1016.2
20260906021240 76 0 0.0 3.0 0.00 0.00 0.00 79 1016.1
20260906020740 76 0 0.0 6.0 0.00 0.00 0.00 79 1016.0
20260906020240 76 329 1.0 6.0 0.00 0.00 0.00 79 1015.9
20260906015740 76 329 1.0 5.0 0.00 0.00 0.00 79 1015.9
20260906015240 76 0 0.0 5.0 0.00 0.00 0.00 79 1015.9
20260906014741 76 329 1.0 6.0 0.00 0.00 0.00 79 1015.9
20260906014240 76 329 1.0 6.0 0.00 0.00 0.00 79 1015.8
20260906013740 76 0 0.0 6.0 0.00 0.00 0.00 79 1015.9
20260906013240 76 0 0.0 5.0 0.00 0.00 0.00 79 1016.0
20260906012823 76 0 0.0 5.0 0.00 0.00 0.00 79 1016.0
20260906012740 76 0 0.0 5.0 0.00 0.00 0.00 79 1016.0
20260906012240 76 331 1.0 5.0 0.00 0.00 0.00 79 1015.9
20260906011740 76 331 1.0 6.0 0.00 0.00 0.00 79 1015.7
20260906011240 76 331 2.0 6.0 0.00 0.00 0.00 79 1015.6
20260906010740 76 331 2.0 6.0 0.00 0.00 0.00 79 1015.5
20260906010240 76 331 2.0 4.0 0.00 0.00 0.00 79 1015.5
20260906005740 76 331 1.0 4.0 0.00 0.00 0.00 78 1015.4
20260906005240 77 331 2.0 6.0 0.00 0.00 0.00 78 1015.5
20260906004740 77 331 2.0 6.0 0.00 0.00 0.00 78 1015.4
20260906004240 77 0 0.0 5.0 0.00 0.00 0.00 77 1015.5
20260906003740 77 0 0.0 4.0 0.00 0.00 0.00 76 1015.4
20260906003240 77 331 1.0 4.0 0.00 0.00 0.00 76 1015.4
20260906002740 77 331 1.0 5.0 0.00 0.00 0.00 76 1015.3
20260906002240 77 331 2.0 5.0 0.00 0.00 0.00 76 1015.2
20260906001742 76 331 1.0 4.0 0.00 0.00 0.00 76 1015.1
20260906001242 76 331 1.0 6.0 0.00 0.00 0.00 76 1015.1
20260906000740 77 0 0.0 6.0 0.00 0.00 0.00 76 1015.1
20260906000241 77 0 0.0 3.0 0.00 0.00 0.00 75 1015.0
20260905235740 77 0 0.0 3.0 0.00 0.00 0.00 75 1015.0
20260905235240 77 0 0.0 3.0 0.00 0.00 0.00 75 1014.9
20260905234741 77 0 0.0 3.0 0.00 0.00 0.00 74 1014.9
20260905234243 77 0 0.0 4.0 0.00 0.00 0.00 74 1014.9
20260905233740 78 331 1.0 5.0 0.00 0.00 0.00 74 1014.8
20260905233240 78 0 0.0 5.0 0.00 0.00 0.00 73 1014.9
20260905232740 78 331 1.0 9.0 0.00 0.00 0.00 73 1014.8
20260905232240 78 0 0.0 9.0 0.00 0.00 0.00 73 1014.6
20260905231739 78 0 0.0 8.0 0.00 0.00 0.00 73 1014.6
20260905231241 78 329 1.0 8.0 0.00 0.00 0.00 73 1014.5
20260905230741 78 0 0.0 5.0 0.00 0.00 0.00 72 1014.6
20260905230241 79 0 0.0 4.0 0.00 0.00 0.00 72 1014.7
20260905225740 79 0 0.0 4.0 0.00 0.00 0.00 72 1014.7
20260905225240 79 0 0.0 2.0 0.00 0.00 0.00 72 1014.7
20260905224740 79 0 0.0 3.0 0.00 0.00 0.00 72 1014.8
20260905224240 79 0 0.0 3.0 0.00 0.00 0.00 72 1014.8
20260905223740 79 0 0.0 9.0 0.00 0.00 0.00 72 1014.8
20260905223240 79 325 1.0 9.0 0.00 0.00 0.00 72 1014.8
20260905222740 79 0 0.0 8.0 0.00 0.00 0.00 72 1014.8
20260905222246 79 324 1.0 8.0 0.00 0.00 0.00 72 1014.9
20260905221740 79 0 0.0 8.0 0.00 0.00 0.00 72 1014.9
20260905221240 79 0 0.0 8.0 0.00 0.00 0.00 71 1014.9
20260905220740 79 0 0.0 8.0 0.00 0.00 0.00 71 1015.0
20260905220240 79 0 0.0 8.0 0.00 0.00 0.00 70 1015.0
20260905215740 79 0 0.0 6.0 0.00 0.00 0.00 71 1014.9
20260905215240 79 310 1.0 5.0 0.00 0.00 0.00 70 1014.9
20260905214742 78 308 1.0 5.0 0.00 0.00 0.00 71 1014.9
20260905214240 78 307 1.0 5.0 0.00 0.00 0.00 71 1015.0
20260905213740 78 305 1.0 5.0 0.00 0.00 0.00 71 1015.0
20260905213239 78 0 0.0 7.0 0.00 0.00 0.00 70 1015.0
20260905212740 78 0 0.0 7.0 0.00 0.00 0.00 69 1015.1
20260905212240 78 0 0.0 6.0 0.00 0.00 0.00 69 1015.1
20260905211740 78 316 1.0 8.0 0.00 0.00 0.00 68 1015.1
20260905211240 78 315 1.0 8.0 0.00 0.00 0.00 68 1015.0
20260905210740 78 313 1.0 8.0 0.00 0.00 0.00 68 1015.0
20260905210240 79 312 2.0 8.0 0.00 0.00 0.00 68 1014.9
20260905205739 79 311 1.0 9.0 0.00 0.00 0.00 67 1014.8
20260905205241 79 309 2.0 9.0 0.00 0.00 0.00 66 1014.7
20260905204741 78 302 2.0 8.0 0.00 0.00 0.00 67 1014.7
20260905204239 79 294 1.0 7.0 0.00 0.00 0.00 67 1014.8
20260905203740 79 291 2.0 7.0 0.00 0.00 0.00 65 1014.8
20260905203240 80 289 1.0 5.0 0.00 0.00 0.00 65 1014.7
20260905202739 80 287 1.0 5.0 0.00 0.00 0.00 64 1014.7
20260905202240 80 283 1.0 5.0 0.00 0.00 0.00 64 1014.8
20260905201742 80 299 1.0 8.0 0.00 0.00 0.00 65 1014.8
20260905201241 80 300 2.0 8.0 0.00 0.00 0.00 65 1014.8
20260905200740 80 287 1.0 6.0 0.00 0.00 0.00 66 1014.9
20260905200239 79 0 0.0 5.0 0.00 0.00 0.00 65 1014.8
20260905195739 80 344 2.0 5.0 0.00 0.00 0.00 64 1014.8
20260905195719 80 0 0.0 4.0 0.00 0.00 0.00 65 1014.9
20260905195239 80 0 0.0 4.0 0.00 0.00 0.00 65 1014.9
20260905194741 80 0 0.0 4.0 0.00 0.00 0.00 63 1015.0
20260905194250 80 0 0.0 3.0 0.00 0.00 0.00 69 1015.0
20260905193855 80 0 0.0 3.0 0.00 0.00 0.00 69 1015.0
20260905193355 79 344 1.0 5.0 0.00 0.00 0.00 70 1014.4
20260905192855 79 0 0.0 5.0 0.00 0.00 0.00 69 1014.4
20260905192355 78 0 0.0 5.0 0.00 0.00 0.00 69 1014.5
20260905191855 77 344 1.0 9.0 0.00 0.00 0.00 70 1014.6
20260905191409 77 344 1.0 9.0 0.00 0.00 0.00 72 1014.8
20260905190855 76 0 0.0 9.0 0.00 0.00 0.00 74 1014.7
20260905190355 76 340 3.0 9.0 0.00 0.00 0.00 73 1014.7
20260905185855 76 338 1.0 5.0 0.00 0.00 0.00 72 1014.8
20260905185355 76 0 0.0 6.0 0.00 0.00 0.00 70 1014.4
20260905184855 75 339 1.0 6.0 0.00 0.00 0.00 75 1014.0
20260905184358 75 339 3.0 6.0 0.00 0.00 0.00 74 1013.7
20260905183855 75 339 3.0 8.0 0.00 0.00 0.00 78 1013.8
20260905183355 76 340 4.0 8.0 0.00 0.00 0.00 78 1013.8
20260905182855 76 340 2.0 9.0 0.00 0.00 0.00 76 1014.3
20260905182355 77 335 4.0 12.0 0.00 0.00 0.00 74 1014.4
20260905181855 77 332 7.0 12.0 0.00 0.00 0.00 72 1014.5
20260905181355 77 344 3.0 10.0 0.00 0.00 0.00 71 1014.7
20260905180855 77 0 0.0 10.0 0.00 0.00 0.00 72 1014.9
20260905180356 78 318 3.0 10.0 0.00 0.00 0.00 73 1015.3
20260905175855 78 327 2.0 9.0 0.00 0.00 0.00 73 1015.6
20260905175355 78 326 4.0 14.0 0.00 0.00 0.00 71 1015.7
20260905174855 79 321 4.0 14.0 0.00 0.00 0.00 70 1015.8
20260905174356 80 344 6.0 13.0 0.00 0.00 0.00 68 1016.0
20260905173855 81 325 5.0 16.0 0.00 0.00 0.00 69 1015.9
20260905173355 83 331 5.0 16.0 0.00 0.00 0.00 67 1015.7
20260905172500 86 326 2.0 12.0 0.00 0.00 0.00 65 1016.0
20260905172001 87 303 3.0 10.0 0.00 0.00 0.00 64 1016.2
20260905171504 87 300 3.0 9.0 0.00 0.00 0.00 63 1016.2
20260905171000 88 300 1.0 9.0 0.00 0.00 0.00 64 1016.4
20260905170502 87 299 1.0 11.0 0.00 0.00 0.00 64 1016.6
20260905170000 87 298 3.0 11.0 0.00 0.00 0.00 65 1016.6
20260905165500 87 296 3.0 11.0 0.00 0.00 0.00 65 1016.7
20260905165000 87 293 1.0 7.0 0.00 0.00 0.00 66 1016.9
20260905164519 87 293 4.0 12.0 0.00 0.00 0.00 65 1016.9
20260905164500 86 293 1.0 12.0 0.00 0.00 0.00 66 1016.9
20260905164002 87 293 4.0 12.0 0.00 0.00 0.00 65 1016.9
20260905163607 87 283 2.0 8.0 0.00 0.00 0.00 65 1016.8
20260905163502 87 283 2.0 8.0 0.00 0.00 0.00 65 1016.8
20260905163000 87 283 1.0 7.0 0.00 0.00 0.00 66 1016.8
20260905162500 86 0 0.0 7.0 0.00 0.00 0.00 69 1016.8
20260905162000 86 282 1.0 7.0 0.00 0.00 0.00 68 1016.9
20260905161836 86 0 0.0 7.0 0.00 0.00 0.00 69 1016.9
20260905161502 86 0 0.0 7.0 0.00 0.00 0.00 69 1016.9
20260905161155 86 282 1.0 6.0 0.00 0.00 0.00 68 1016.9
20260905161000 86 282 1.0 6.0 0.00 0.00 0.00 68 1016.9
20260905160533 86 282 2.0 6.0 0.00 0.00 0.00 69 1016.9
20260905160500 86 282 2.0 6.0 0.00 0.00 0.00 69 1016.9
20260905160001 86 0 0.0 4.0 0.00 0.00 0.00 67 1016.9
20260905155500 86 282 1.0 7.0 0.00 0.00 0.00 69 1017.0
20260905155001 85 0 0.0 7.0 0.00 0.00 0.00 70 1017.0
20260905154743 87 0 0.0 7.0 0.00 0.00 0.00 68 1017.0
20260905154500 86 0 0.0 6.0 0.00 0.00 0.00 67 1017.1
20260905154000 87 0 0.0 7.0 0.00 0.00 0.00 68 1017.0
20260905153501 86 0 0.0 7.0 0.00 0.00 0.00 68 1017.1
20260905153001 86 0 0.0 4.0 0.00 0.00 0.00 69 1017.0
20260905152550 86 282 2.0 6.0 0.00 0.00 0.00 68 1017.0
20260905152503 86 282 2.0 6.0 0.00 0.00 0.00 68 1017.0
20260905152001 86 282 1.0 6.0 0.00 0.00 0.00 66 1017.0
20260905151500 86 0 0.0 3.0 0.00 0.00 0.00 67 1017.1
20260905151000 86 0 0.0 3.0 0.00 0.00 0.00 68 1017.1
20260905150501 86 0 0.0 3.0 0.00 0.00 0.00 68 1017.1
20260905150001 86 0 0.0 2.0 0.00 0.00 0.00 67 1017.1
20260905145500 86 0 0.0 3.0 0.00 0.00 0.00 66 1017.1
20260905145001 86 0 0.0 3.0 0.00 0.00 0.00 67 1017.1
20260905144502 85 0 0.0 3.0 0.00 0.00 0.00 67 1017.1
20260905144001 85 0 0.0 4.0 0.00 0.00 0.00 68 1017.1
20260905143501 85 0 0.0 4.0 0.00 0.00 0.00 70 1017.1
20260905143001 84 0 0.0 4.0 0.00 0.00 0.00 70 1017.2
20260905142500 84 0 0.0 4.0 0.00 0.00 0.00 70 1017.1
20260905142000 84 0 0.0 4.0 0.00 0.00 0.00 71 1017.0
20260905141500 84 282 1.0 4.0 0.00 0.00 0.00 70 1017.0
20260905141000 83 0 0.0 10.0 0.00 0.00 0.00 70 1016.9
20260905140510 83 0 0.0 10.0 0.00 0.00 0.00 70 1016.8
20260905140000 83 0 0.0 7.0 0.00 0.00 0.00 71 1016.7
20260905135500 82 0 0.0 7.0 0.00 0.00 0.00 73 1016.7
20260905135001 82 0 0.0 6.0 0.00 0.00 0.00 72 1016.6
20260905134542 82 0 0.0 6.0 0.00 0.00 0.00 72 1016.7
20260905134500 82 0 0.0 6.0 0.00 0.00 0.00 72 1016.7
20260905134000 82 0 0.0 4.0 0.00 0.00 0.00 72 1016.8
20260905133501 81 0 0.0 8.0 0.00 0.00 0.00 72 1016.8
20260905133003 81 285 1.0 8.0 0.00 0.00 0.00 72 1016.8
20260905132500 81 0 0.0 6.0 0.00 0.00 0.00 72 1016.7
20260905132000 81 285 1.0 8.0 0.00 0.00 0.00 71 1016.8
20260905131500 81 0 0.0 8.0 0.00 0.00 0.00 72 1016.7
20260905131000 81 0 0.0 6.0 0.00 0.00 0.00 73 1016.7
20260905130057 80 0 0.0 6.0 0.00 0.00 0.00 73 1016.8
20260905125600 80 285 1.0 8.0 0.00 0.00 0.00 73 1016.8
20260905125100 80 285 3.0 8.0 0.00 0.00 0.00 73 1016.8
20260905124557 79 285 1.0 7.0 0.00 0.00 0.00 74 1016.9
20260905124058 79 285 1.0 8.0 0.00 0.00 0.00 74 1016.9
20260905123557 79 0 0.0 8.0 0.00 0.00 0.00 74 1016.9
20260905123100 79 284 1.0 8.0 0.00 0.00 0.00 75 1016.8
20260905122557 78 284 1.0 10.0 0.00 0.00 0.00 75 1016.7
20260905122057 78 284 3.0 11.0 0.00 0.00 0.00 75 1016.7
20260905121557 78 283 4.0 11.0 0.00 0.00 0.00 75 1016.6
20260905121057 78 280 4.0 8.0 0.00 0.00 0.00 75 1016.7
20260905120155 77 280 3.0 10.0 0.00 0.00 0.00 75 1016.8
20260905115652 77 280 3.0 9.0 0.00 0.00 0.00 75 1016.8
20260905115158 77 280 3.0 9.0 0.00 0.00 0.00 76 1016.7
20260905114652 77 280 3.0 7.0 0.00 0.00 0.00 76 1016.6
20260905114153 77 280 1.0 9.0 0.00 0.00 0.00 76 1016.5
20260905113653 77 280 2.0 9.0 0.00 0.00 0.00 76 1016.5
20260905113154 77 280 2.0 7.0 0.00 0.00 0.00 76 1016.5
20260905112652 77 280 1.0 6.0 0.00 0.00 0.00 76 1016.5
20260905112152 76 0 0.0 6.0 0.00 0.00 0.00 76 1016.4
20260905111652 76 0 0.0 6.0 0.00 0.00 0.00 76 1016.3
20260905111154 77 280 1.0 9.0 0.00 0.00 0.00 76 1016.3
20260905110654 77 280 3.0 9.0 0.00 0.00 0.00 75 1016.3
20260905110200 77 280 3.0 8.0 0.00 0.00 0.00 75 1016.3
20260905105652 77 279 3.0 8.0 0.00 0.00 0.00 75 1016.3
20260905105152 77 280 3.0 9.0 0.00 0.00 0.00 74 1016.3